sat.trackr.live / text

‹ back to catalog

STARLINK-2387

NORAD 47806 · 2021-018V

PAYLOAD ACTIVE UNKNOWN

§ Identity

Operator
Country
US
Launch date
2021-03-11
Launch site
AFETR
Launch vehicle
Mass (kg)
RCS (m²)

Purposes: comms

External: N2YO · Heavens-Above · Gunter

§ Orbital elements

Epoch: 2026-09-20T01:19:26.496192Z

Period
94.01 min
Inclination
53.1587°
Eccentricity
0.0001053
Mean motion
15.31699371 rev/d
Perigee alt
470.0 km
Apogee alt
471.5 km
Semi-major
6,848.9 km
B*
-7.3605e-6
RAAN
58.4324°
Arg perigee
91.1200°
Mean anomaly
268.9922°
Rev number
30,656

§ Raw data

STARLINK-23871 47806U 21018V   26263.05516778 -.00000593  00000+0 -73605-5 0  99992 47806  53.1587  58.4324 0001053  91.1200 268.9922 15.31699371306567

JSON: /api/v1/satellites/47806 · /tle

For live sub-satellite position, see the globe view (requires WebGL).

§ Visibility from observer

Set your observer location to see the next 7 days of passes ≥ 10°. The values pass through the URL so the page stays shareable.

No JS? Fill the form by hand. The geolocation button needs JavaScript.